Location: Dallas
(32.7833°N, 96.8000°W)
Time: 23:12:38
(UTC-06:00)

Envisat - Pass Details

Date: 02 February 2021
Orbit: 764 x 766 km, 98.1° (Epoch: 06 March)

Event Time Altitude Azimuth Distance (km) Brightness Sun altitude
Rises 05:21:12 0° 25° (NNE) 3,233 6.5 -25.5°
Reaches altitude 10° 05:23:48 10° 37° (NE) 2,303 5.8 -24.9°
Maximum altitude 05:28:10 29° 97° (E) 1,377 5.0 -24.0°
Drops below altitude 10° 05:32:31 10° 156° (SSE) 2,290 5.8 -23.1°
Sets 05:35:06 0° 168° (SSE) 3,212 6.5 -22.6°
